Location: Bal�tre
(49.7097°N, 2.8654°E)
Time: 22:42:06
(UTC+00:00)

Daily predictions for brighter satellites

Satellite Brightness Start Highest point End
(mag) Time Altitude Azimuth Time Altitude Azimuth Time Altitude Azimuth
Cosmos 2026 Rocket 4.4 16:19:53 10° N 16:25:35 38° ENE 16:31:11 10° SE
Cosmos 2322 Rocket 3.8 16:24:15 10° N 16:27:38 16° NNE 16:31:02 10° ENE
Cosmos 1743 Rocket 3.7 16:23:43 10° N 16:27:58 53° ENE 16:32:12 10° SSE
USA 305 3.4 16:24:05 10° W 16:28:12 47° N 16:32:20 10° ENE
Cosmos 1697 Rocket 2.7 16:23:51 10° NNW 16:29:29 70° ENE 16:35:04 10° SE
CZ-4B R/B 2.8 16:26:18 10° SSE 16:30:14 60° ENE 16:34:00 10° N
Cosmos 1933 4.2 16:27:28 10° SSE 16:31:02 30° E 16:34:35 10° NNE
Cosmos 1980 Rocket 2.5 16:28:42 10° NNW 16:34:09 44° NE 16:39:32 10° SE
Cosmos 1271 Rocket 4.2 16:30:40 10° SW 16:34:24 39° WNW 16:38:12 10° N
SL-08 R/B 3.3 16:30:16 10° NNE 16:34:59 72° ESE 16:39:37 10° S
Okean O Rocket 3.1 16:34:43 10° E 16:37:31 17° ENE 16:40:19 10° NNE
Cosmos 540 Rocket 4.1 16:33:41 10° SSE 16:38:18 36° ESE 16:42:57 10° NE
Cosmos 2369 3.8 16:32:54 10° NNW 16:38:35 57° NE 16:44:13 10° SE
FengYun 1-2 T 4.2 16:33:20 10° SSE 16:38:50 65° ENE 16:44:20 10° N
SJ 16-02 4.1 16:35:26 10° NW 16:38:56 24° W 16:42:25 10° SSW
Cosmos 1812 4.2 16:43:51 10° SE 16:46:28 18° E 16:48:49 11° NE
Meteor PRIRODA 3.6 16:42:52 10° SSE 16:46:30 85° WSW 16:50:09 10° NNW
SL-16 R/B 3.4 16:42:12 10° N 16:46:36 22° NE 16:50:59 10° E
ERBS 3.5 16:44:18 10° WNW 16:47:08 28° NNW 16:49:40 12° NE
NOAA 12 4.1 16:42:00 10° SSE 16:47:20 87° ENE 16:52:42 10° NNW
CORIOLIS 4.2 16:45:34 10° SSE 16:50:52 60° ENE 16:56:14 10° N
Cosmos 2082 Rocket 3.0 16:47:08 10° SSE 16:52:08 33° ESE 16:56:54 11° NE
Meteor 1-25 Rocket 4.2 16:49:09 10° N 16:54:46 82° ENE 17:00:23 10° SSE
Cosmos 1500 Rocket 3.8 16:51:39 10° NNW 16:56:07 77° W 17:00:30 10° S
Cosmos 468 Rocket 4.0 16:52:08 10° SSW 16:57:18 81° ESE 17:02:33 10° NNE
Cosmos 2333 Rocket 4.0 16:56:30 10° N 16:58:55 13° NNE 17:00:43 11° NE
USA 306 3.4 16:56:24 10° WNW 17:00:32 46° N 17:03:34 17° ENE
Cosmos 1898 Rocket 3.9 16:56:18 10° NNW 17:01:33 69° WSW 17:06:42 10° SSE
Cosmos 2278 3.9 16:56:39 10° NNW 17:02:14 51° NE 17:07:46 10° SE
Cosmos 1818 4.0 16:57:54 10° NNW 17:03:08 42° NE 17:08:19 10° ESE
Cosmos 1602 3.6 16:59:21 10° N 17:03:14 79° E 17:07:06 10° SSE
Sich 1 3.0 16:59:06 10° N 17:03:22 61° ENE 17:07:38 10° SSE
CZ-4B DEB 4.2 16:58:17 10° SSE 17:03:44 66° ENE 17:09:11 10° N
Cosmos 2221 3.7 17:00:40 10° SSW 17:04:45 43° WNW 17:08:54 10° N
Cosmos 1939 Rocket 2.9 17:01:15 10° SSE 17:05:22 88° WSW 17:09:28 10° NNW
ARGOS 3.7 17:02:24 10° SE 17:07:13 34° ENE 17:12:02 10° N
Cosmos 1805 Rocket 3.5 17:03:42 10° N 17:08:03 85° E 17:12:24 10° S
Cosmos 1833 Rocket 2.7 17:06:11 10° SSW 17:11:48 88° ESE 17:17:29 10° NNE
COSMOS 2406 3.2 17:10:01 10° SSW 17:15:44 76° ESE 17:21:11 12° NNE
NOSS 2-2 (C) 4.4 17:10:42 10° NW 17:15:44 85° SW 17:22:51 10° SE
GEOS 3 Rocket 4.3 17:13:45 17° E 17:17:04 34° NNE 17:21:41 10° NNW
deb Chang Zheng 4 4.0 17:14:26 10° SE 17:18:27 39° ENE 17:22:29 10° N
USA 307 3.3 17:15:38 10° WNW 17:19:46 47° N 17:21:59 24° ENE
Cosmos 2219 Rocket 4.0 17:17:22 10° N 17:19:52 13° NNE 17:20:35 13° NE
USA 267 3.3 17:16:34 17° ENE 17:21:51 82° SSE 17:28:25 10° SW
CZ-2C R/B 4.3 17:17:21 10° S 17:21:57 41° W 17:26:29 10° NNW
Cosmos 1092 Rocket 4.2 17:15:52 10° NNW 17:22:14 77° W 17:28:33 10° S
Cosmos 1782 2.7 17:19:32 10° S 17:23:30 73° E 17:27:29 10° NNE
CZ-2C R/B 3.1 17:21:47 12° NNE 17:26:14 37° E 17:31:00 10° SSE
Cosmos 1500 3.1 17:24:11 10° N 17:27:57 84° W 17:31:40 10° S
Cosmos 1763 Rocket 4.0 17:23:49 10° SW 17:28:48 56° WNW 17:33:52 10° NNE
Cosmos 2150 Rocket 4.5 17:24:33 10° N 17:29:21 37° ENE 17:33:12 15° ESE
SL-08 RB Rocket 4.4 17:25:24 10° SE 17:29:31 33° ENE 17:33:37 10° N
CZ-2D R/B 3.1 17:25:58 10° SSE 17:29:47 82° ENE 17:33:38 10° NNW
CZ-4C R/B 2.9 17:22:46 10° NW 17:29:51 83° NE 17:38:14 10° SE
Meteor 2-16 Rocket 4.4 17:25:02 10° N 17:31:09 66° ENE 17:37:14 10° SSE
H-2A R/B 1.9 17:27:55 10° SSE 17:33:04 80° ENE 17:38:07 10° NNW
CZ-4B R/B 3.1 17:29:11 10° SSE 17:34:30 65° ENE 17:39:48 10° N
Cosmos 841 Rocket 3.4 17:30:57 10° SSW 17:36:06 83° ESE 17:40:21 15° NNE
PAYLOAD B 4.2 17:30:44 10° SSE 17:36:21 89° WSW 17:42:00 10° NNW
ATLAS CENTAUR R/B 3.8 17:34:37 10° NW 17:37:12 15° NNW 17:39:25 11° NNE
USA 308 3.2 17:38:15 10° WNW 17:42:24 50° N 17:43:39 37° ENE
SMAP 4.3 17:38:18 10° S 17:42:45 44° W 17:47:14 10° NNW
Lacrosse 5 rocket 1.2 17:39:34 10° NW 17:43:26 68° NNE 17:44:49 39° E
COSMO-SKYMED 1 2.8 17:41:39 28° NE 17:43:37 48° E 17:47:49 10° S
Cosmos 1125 Rocket 3.8 17:39:34 10° NNW 17:44:37 44° ENE 17:47:31 23° ESE
Cosmos 2142 Rocket 4.4 17:39:13 10° S 17:45:20 73° E 17:51:34 10° NNE
Cosmos 921 Rocket 4.0 17:42:34 10° SSE 17:45:22 27° ESE 17:45:22 27° ESE
COSMOS 2455 2.8 17:42:26 10° SSW 17:48:28 88° SE 17:52:28 23° NE
Cosmos 1633 Rocket 2.9 17:46:04 10° N 17:50:28 85° E 17:54:52 10° S
Cosmos 2279 Rocket 3.9 17:44:33 10° S 17:50:44 75° E 17:56:57 10° NNE
ATLAS 2AS CENTAUR R/B 4.1 17:44:28 10° NW 17:50:50 28° N 17:54:01 21° NE
ISS -2.2 17:48:04 10° W 17:51:11 34° SSW 17:53:03 19° SSE
Cosmos 2360 Rocket 3.1 17:47:14 10° NNW 17:52:09 29° NE 17:52:12 29° NE
Cosmos 2266 Rocket 4.1 17:46:55 10° N 17:53:10 54° ENE 17:59:26 10° SSE
Cosmos 44 Rocket 3.1 17:48:12 10° NW 17:53:11 77° NE 17:56:04 24° SE
YAOGAN 1 3.7 17:56:49 27° NNE 17:56:49 27° NNE 17:59:07 10° N
CZ-4 R/B 3.7 17:59:29 12° N 17:59:29 12° N 17:59:53 10° N
USA 234 3.9 17:50:24 10° SE 17:56:46 54° SW 18:03:10 10° WNW
Meteor 1-11 Rocket 3.9 17:51:31 10° N 17:56:58 49° ENE 18:02:30 10° SSE
Cosmos 1666 2.8 17:53:30 10° NNW 17:57:13 70° W 18:00:55 10° S
Meteor 1-10 Rocket 4.4 17:52:34 10° SSE 17:58:05 48° E 18:00:37 29° NE
Cosmos 1151 Rocket 3.0 17:57:16 10° S 18:01:36 83° W 18:04:41 19° N
COSMOS 2428 4.4 18:01:13 10° N 18:03:52 17° NNE 18:03:52 17° NNE
CZ-4 R/B 4.4 18:03:20 10° SSE 18:07:28 87° W 18:11:38 10° NNW
SKYMED 3 4.4 18:06:03 36° NNE 18:07:48 83° ESE 18:12:09 10° SSW
USA 305 2.9 18:04:17 10° WNW 18:08:30 61° NNE 18:08:40 60° NNE
Cosmos 1900 4.2 18:06:31 10° SSW 18:11:18 62° ESE 18:11:48 58° E
Cosmos 2322 Rocket 2.3 18:07:27 10° NNW 18:13:03 54° NE 18:13:53 49° E
Okean O Rocket 1.8 18:08:53 10° S 18:13:20 75° WSW 18:17:49 10° NNW
Feng Yun 1-1 Rocket 4.2 18:08:40 10° SSE 18:14:34 75° ENE 18:20:25 10° NNW
Meteor 2-15 4.3 18:09:22 10° S 18:15:27 72° E 18:21:06 12° NNE
Landsat 5 3.6 18:16:56 56° SSE 18:16:56 56° SSE 18:20:11 10° S
Cosmos 1980 Rocket 3.7 18:12:55 10° NW 18:18:05 37° WSW 18:23:12 10° S
Cosmos 1470 Rocket 3.6 18:16:06 10° NNW 18:20:35 81° W 18:25:02 10° S
Cosmos 1812 3.9 18:18:14 10° SSW 18:21:53 42° WNW 18:23:53 23° NNW
Cosmos 1328 Rocket 3.7 18:17:54 10° SSW 18:22:20 73° W 18:24:03 37° N
Spot 2 4.3 18:20:29 24° SSE 18:23:39 74° ENE 18:28:46 10° NNW
SL-16 R/B 2.1 18:25:49 10° NNW 18:31:32 88° ENE 18:33:21 46° SSE
SKYMED 2 4.1 18:30:16 38° NNW 18:31:44 58° WNW 18:35:59 10° SSW
Cosmos 1570 Rocket 4.3 18:28:22 10° SW 18:33:34 64° WNW 18:35:28 38° N
Cosmos 2237 Rocket 4.4 18:31:41 10° N 18:32:29 12° N 18:32:29 12° N
Cosmos 1655 Rocket 4.1 18:28:18 10° NNW 18:34:44 79° W 18:41:04 10° S
Cosmos 2298 Rocket 4.2 18:29:35 10° NNW 18:34:54 71° WSW 18:38:49 18° S
Cosmos 2082 Rocket 2.9 18:30:32 10° SW 18:36:02 49° NW 18:38:46 28° N
ATLAS CENTAUR R/B 2.8 18:30:46 10° WSW 18:37:37 47° NNW 18:37:44 47° NNW
USA 306 3.7 18:36:29 10° WNW 18:39:34 46° NW 18:39:34 46° NW
Cosmos 2333 Rocket 3.6 18:39:42 10° NNW 18:42:43 26° N 18:42:43 26° N
Cosmos 1818 4.4 18:41:34 10° NW 18:46:49 47° WSW 18:49:43 24° S
ARGOS 4.3 18:42:15 10° S 18:47:23 43° W 18:52:33 10° NNW
GEOS 3 Rocket 3.7 18:54:52 74° SW 18:54:52 74° SW 19:00:03 10° NW
USA 267 3.6 19:03:55 51° N 19:04:42 54° NNW 19:11:01 10° W
Cosmos 2219 Rocket 3.9 19:00:12 10° NNW 19:02:19 21° N 19:02:19 21° N
CZ-2C R/B 3.9 19:03:19 18° N 19:06:31 36° WNW 19:11:11 10° SW
ATLAS CENTAUR R/B 4.4 19:15:30 10° NNW 19:15:32 10° NNW 19:15:32 10° NNW
Lacrosse 5 rocket 3.9 19:18:57 10° WNW 19:20:27 18° W 19:20:27 18° W
COSMOS 2455 4.4 19:30:04 10° W 19:35:11 28° NNW 19:35:38 28° NNW
Cosmos 2360 Rocket 3.6 19:30:59 10° NNW 19:33:59 32° NW 19:33:59 32° NW
ATLAS 2AS CENTAUR R/B 4.0 19:36:47 10° NW 19:41:27 33° N 19:41:27 33° N
Cosmos 2322 Rocket 4.0 19:51:56 10° NW 19:55:47 28° W 19:55:47 28° W
